Flag for Ukraine Weather past 2 weeks in L'viv, Ukraine

Now
61 °F

Partly sunny.


Feels Like: 61 °F
Forecast: 60 / 70 °F
Wind: 10 mph from Northeast

Location: L'Viv Airport

Current Time: Jul 23, 2014 at 9:47:52 PM

Latest Report: Jul 23, 2014 at 9:00 PM


Visibility: N/A

Pressure: 29.86 "Hg

Humidity: 100%

Dew point: 61 °F

Location of L'vivLocation

Historic Weather in L'viv — Graph

°F

L'viv temperature yesterday

Maximum temperature yesterday: 79 °F (at 1:30 PM)
Minimum temperature yesterday: 64 °F (at 5:00 AM)
Average temperature yesterday: 72 °F

Past Weeks' High & Low Weather Summary

 TemperatureHumidityPressure
High82 °F (Jul 14, 4:00 PM)100% (Jul 9, 4:30 PM)30.12 "Hg (Jul 9, 4:30 PM)
Low55 °F (Jul 14, 3:00 AM)30% (Jul 14, 4:30 PM)29.59 "Hg (Jul 11, 7:30 PM)
Average69 °F71%29.91 "Hg
* Reported Jul 8 8:00 PM — Jul 23 8:30 PM, L'viv, Weather by CustomWeather, © 2014

Note: Actual official high and low records may vary slightly from our data, if they occured in-between our weather recording intervals... More about our weather records

Advertising

L'viv weather history for previous 24 hours

 ConditionsComfort  
Time TempWeatherWind HumidityBarometerVisibility
8:30 PM
Jul 23
61 °FSprinkles. Partly sunny.10 mph94%29.86 "HgN/A
8:00 PM61 °FSprinkles. Partly sunny.10 mph94%29.89 "HgN/A
7:30 PM61 °FSprinkles. Partly sunny.13 mph94%29.86 "HgN/A
7:00 PM63 °FSprinkles. Partly sunny.10 mph94%29.89 "HgN/A
6:30 PM63 °FSprinkles. Partly sunny.10 mph94%29.89 "HgN/A
6:00 PM63 °FSprinkles. Partly sunny.10 mph94%29.89 "HgN/A
5:30 PM63 °FSprinkles. Partly sunny.10 mph94%29.89 "Hg3 mi
5:00 PM63 °FSprinkles. Partly sunny.13 mph94%29.89 "Hg4 mi
4:30 PM64 °FSprinkles. Partly sunny.10 mph88%29.89 "HgN/A
4:00 PM63 °FSprinkles. Partly sunny.10 mph94%29.89 "Hg4 mi
3:00 PM63 °FSprinkles. Broken clouds.8 mph94%29.89 "HgN/A
2:30 PM64 °FSprinkles. Partly sunny.8 mph88%29.89 "HgN/A
2:00 PM63 °FSprinkles. Partly sunny.8 mph94%29.92 "HgN/A
1:00 PM64 °FLight rain. Partly sunny.10 mph94%29.92 "HgN/A
12:00 PM64 °FSprinkles. Partly sunny.10 mph94%29.92 "Hg6 mi
8:30 AM63 °FBroken clouds.8 mph83%29.89 "HgN/A
8:00 AM63 °FBroken clouds.8 mph83%29.89 "HgN/A
7:30 AM63 °FBroken clouds.8 mph83%29.89 "HgN/A
7:00 AM63 °FBroken clouds.10 mph83%29.89 "HgN/A
6:30 AM63 °FPartly cloudy.8 mph83%29.89 "HgN/A
6:00 AM63 °FClear.10 mph77%29.89 "Hg10 mi
5:30 AM63 °FClear.10 mph77%29.89 "Hg10 mi
5:00 AM63 °FClear.8 mph77%29.89 "Hg10 mi
4:30 AM63 °FClear.8 mph83%29.89 "Hg10 mi
4:00 AM63 °FPartly cloudy.8 mph88%29.92 "HgN/A
3:30 AM63 °FClear.6 mph94%29.92 "Hg10 mi
3:00 AM63 °FFog.No wind94%29.92 "Hg2 mi
2:00 AM63 °FClear.No wind94%29.92 "Hg4 mi
Weather by CustomWeather, © 2014

See weather overviewHow to use our weather pages